Showing default

SATGUS, 62713

Orbit data source: Space-Track

SATGUS, 62713 is an American payload satellite in SSO that was launched on Tue, 14 Jan 2025 UTC via an FALCON 9 launch vehicle from the Air Force Western Test Range (AFWTR). Payload-class satellites include a variety of spacecraft equipped with specific instruments for various scientific and technological missions. These include communications satellites like Starlink; space stations such as the ISS; scientific satellites like the Hubble; Earth observation satellites from companies like Planet Labs, Umbra, and HawkEye 360; GPS; miniature CubeSats for education and research; and military/defense satellites.

Loading next visibility...
Identifier
62713, 2025-009DJ
Orbit
SSO
Country
Flag of USUS
Related business
Manufacturer
Terran Orbital
Mission
Operational Commercial Imaging
Bus & Motor
CUBESAT 16U, Unknown motor
Mass
0.4 kg wet, 0.2 kg dry
Launch date (UTC)
2025-01-14 (1 year ago)
Launch vehicle
FALCON 9
Launch site
Air Force Western Test Range (AFWTR)
Object type
Payload
Rocket body
Debris
Shape & HBR
Box, 0.6 m
Radar Cross Section
0.100 m², Medium (>0.1 m² and < 1m²)

Expand to show TLE details & history
Last TLE update: 16 hours ago

TLE from 16 hours ago
0 SATGUS
1 62713U 25009DJ  26035.20865705  .00008694  00000-0  71678-3 0  9993
2 62713  97.7134 117.7991 0002504 215.0089 145.0970 14.99274728 57622
Epoch: 2026-02-04T05:00Z
TLE epoch observation values (Epoch: 2026-02-04T05:00:27.969Z)
Latitude
0.00003°
Longitude
-91.69597°
Altitude
573.616 km
Speed
7.573 km/s
True Right ascension
07h 51m 11s
True Declination
0° 00' 00"
Sunlit
Object was in full shadow at epoch
Visualization orbit readout
Latitude
Unknown
Longitude
Unknown
Altitude
Unknown
Speed
Unknown
Apparent Right ascension
Unknown
Apparent Declination
Unknown
Sunlit
N/A
Visualization observer readout
Local Sidereal Time
23:27:57
Azimuth
Unknown
Elevation
Unknown
Doppler factor
Unknown
Orbital elements
Apogee altitude
567.882 km
Perigee altitude
564.404 km
Semi-major axis
6,944.28 km
Eccentricity
0.00025
Inclination
97.7134°
RAAN
117.7991°
Arg. of periapsis
215.0089°
True anomaly
145.11341°
Mean anomaly
145.097°
Eccentric anomaly
145.10521°
Mean motion
3.75061 °/min
Orbital period
95.98 mins
BSTAR
0.00071678
Loading maneuver chart data...
Computing Atmospheric mass density...
Loading historical data...
Loading historical data...
Loading historical data...
Loading historical data...
Loading historical data...
Loading historical data...
Loading historical data...

Documentation

Showing up to 5 results
|